Location: Breux
(46.3269°N, 3.2993°E)
Time: 09:24:21
(UTC+00:00)

Abrixas rocket - Pass Details

Date: 09 April 2020
Orbit: 344 x 351 km, 48.4° (Epoch: 04 June)

Event Time Altitude Azimuth Distance (km) Brightness Sun altitude
Rises 19:54:57 0° 287° (WNW) 2,167 7.5 -15.0°
Reaches altitude 10° 19:56:59 10° 283° (WNW) 1,325 6.0 -15.3°
Maximum altitude 19:59:54 57° 204° (SSW) 422 2.1 -15.7°
Enters shadow 20:00:33 44° 152° (SSE) 504 2.2 -15.8°
